Terminal Aerodrome Forecast
Issued by NWS Portland, OR

Home | Current Version | Previous Version | Text Only | Print | Product List | Glossary On
Versions: 1 2 3 4 5 6 7 8 9 10 11 12 13 14 15 16 17 18 19 20 21 22 23 24 25 26 27 28 29 30 31 32 33 34 35 36 37 38 39 40 41 42 43 44 45 46 47 48 49 50
000
FTUS46 KPQR 071141
TAFPDX
TAF
KPDX 071141Z 0712/0812 VRB03KT 2SM BR BKN002 OVC006
     FM071400 VRB03KT 5SM BR BKN005
     FM071600 09006KT P6SM SKC
     FM072000 09013KT P6SM SKC
     FM080000 09020G30KT P6SM SCT200
     FM080600 09025G35KT P6SM BKN150=

USA.gov is the U.S. government's official web portal to all federal, state and local government web resources and services.